Location: Clanezzo
(45.7500°N, 9.6000°E)
Time: 04:06:52
(UTC+00:00)

USA 308 - Pass Details

Date: 12 May 2021
Orbit: 568 x 576 km, 54.0° (Epoch: 10 May)

Event Time Altitude Azimuth Distance (km) Brightness Sun altitude
Rises 19:43:40 0° 303° (WNW) 2,784 8.6 -9.7°
Reaches altitude 10° 19:46:01 10° 309° (NW) 1,885 7.2 -10.0°
Maximum altitude 19:50:08 45° 23° (NNE) 791 3.7 -10.5°
Enters shadow 19:54:09 11° 96° (E) 1,839 5.0 -11.1°
